Chamberlain, SD

10:27 PM CDT on April 21, 2018 (GMT -0500)
Chamberlain

Weather History for K9V9 - February, 2014

Change the Weather History Date:

Wednesday, February 26, 2014

  Actual Average Record
Temperature  
Mean Temperature 10 °F -  
Max Temperature 30 °F 33 °F 63 °F (2005)
Min Temperature -9 °F 14 °F -9 °F (2014)
Degree Days  
Heating Degree Days 54    
Moisture  
Dew Point 0 °F    
Average Humidity 65    
Maximum Humidity 83    
Minimum Humidity 51    
Precipitation  
Precipitation 0.01 in - - ()
Sea Level Pressure  
Sea Level Pressure 30.16 in    
Wind  
Wind Speed 11 mph (WNW)    
Max Wind Speed 24 mph    
Max Gust Speed 32 mph    
Averages and records for this station are not official NWS values.
T = Trace of Precipitation, MM = Missing Value Source: NWS Daily Summary

Daily Weather History Graph

Daily Weather History Graph

Search for Another Location

Airport or City:

Astronomy

Feb. 26, 2014 Rise Set
Actual Time 7:18 AM CST 6:22 PM CST
Civil Twilight 6:49 AM CST 6:51 PM CST
Nautical Twilight 6:16 AM CST 7:24 PM CST
Astronomical Twilight 5:43 AM CST 7:57 PM CST
Moon 5:10 AM CST (2/26) 3:34 PM CST (2/26)
Length of Visible Light 12h 01m
Length of Day
11h 03m
Waning Crescent, 10% of the Moon is Illuminated
Feb 26
Waning Crescent
Mar 1
New
Mar 8
First Quarter
Mar 16
Full
Mar 23
Last Quarter

Hourly Weather History & Observations

Time (CST) Temp. Windchill Dew Point Humidity Pressure Visibility Wind Dir Wind Speed Gust Speed Precip Events Conditions
12:52 AM -8.0 °F -26.1 °F -11.9 °F 83% 30.52 in - West 10.4 mph - N/A   Unknown
1:52 AM -8.0 °F -16.9 °F -14.1 °F 75% 30.49 in - WSW 3.5 mph - N/A   Unknown
2:52 AM -7.1 °F -26.8 °F -11.9 °F 79% 30.43 in - West 12.7 mph - N/A   Unknown
3:52 AM -9.9 °F -26.3 °F -15.0 °F 78% 30.38 in - WSW 8.1 mph - N/A   Unknown
4:52 AM -7.1 °F - -11.9 °F 79% 30.33 in - Calm Calm - N/A   Unknown
5:52 AM -6.0 °F -14.7 °F -11.9 °F 75% 30.29 in - WSW 3.5 mph - N/A   Unknown
6:52 AM -7.1 °F -25.9 °F -13.0 °F 75% 30.28 in - West 11.5 mph - N/A   Unknown
7:52 AM -5.1 °F -24.3 °F -11.9 °F 72% 30.24 in - West 12.7 mph - N/A   Unknown
8:52 AM 1.9 °F -16.2 °F -5.1 °F 72% 30.18 in - WSW 13.8 mph - N/A   Unknown
9:52 AM 3.9 °F -13.0 °F -2.0 °F 76% 30.16 in - West 12.7 mph - N/A   Unknown
10:52 AM 10.0 °F -4.5 °F -0.9 °F 61% 30.11 in - West 11.5 mph - N/A   Unknown
11:52 AM 18.0 °F 2.6 °F 3.9 °F 54% 30.08 in - West 17.3 mph - N/A   Unknown
12:52 PM 21.9 °F 6.9 °F 7.0 °F 53% 30.04 in - WNW 19.6 mph 26.5 mph N/A   Unknown
1:52 PM 27.0 °F 12.2 °F 10.9 °F 51% 30.00 in - WNW 24.2 mph 32.2 mph N/A   Unknown
2:52 PM 28.9 °F 16.9 °F 12.9 °F 51% 29.99 in - WNW 17.3 mph - N/A   Unknown
3:52 PM 30.0 °F 18.7 °F 16.0 °F 56% 29.97 in - WNW 16.1 mph 25.3 mph N/A   Unknown
4:52 PM 30.9 °F 19.8 °F 17.1 °F 57% 29.96 in - WNW 16.1 mph - 0.01 in   Unknown
5:52 PM 30.0 °F 18.7 °F 14.0 °F 51% 29.98 in - NNW 16.1 mph 26.5 mph N/A   Unknown
6:52 PM 27.0 °F 16.1 °F 10.9 °F 51% 30.02 in - NNW 12.7 mph - N/A   Unknown
7:52 PM 24.1 °F 13.7 °F 9.0 °F 53% 30.05 in - NNW 10.4 mph - N/A   Unknown
8:52 PM 21.0 °F 7.6 °F 6.1 °F 53% 30.06 in - NNE 15.0 mph 23.0 mph N/A   Unknown
9:52 PM 14.0 °F 0.5 °F 3.9 °F 64% 30.12 in - NNE 11.5 mph 19.6 mph N/A   Unknown
10:52 PM 10.9 °F -3.4 °F 1.0 °F 64% 30.13 in - NNE 11.5 mph - N/A   Unknown
11:52 PM 9.0 °F -7.3 °F -0.0 °F 67% 30.14 in - NNE 13.8 mph - N/A   Unknown